Location: *
(34.0486°S, 61.7880°E)
Time: 19:55:50
(UTC+00:00)

Cosmos 1606 Rocket - Pass Details

Date: 01 April 2020
Orbit: 602 x 633 km, 82.5° (Epoch: 27 May)

Event Time Altitude Azimuth Distance (km) Brightness Sun altitude
Rises 15:12:51 0° 181° (S) 2,889 7.1 -18.5°
Reaches altitude 10° 15:15:08 10° 176° (S) 1,978 6.2 -19.0°
Maximum altitude 15:19:25 53° 99° (E) 757 3.6 -19.9°
Enters shadow 15:19:57 49° 71° (ENE) 790 3.6 -20.0°
